Location: Grandview
(34.8900°N, 117.1058°W)
Time: 18:46:38
(UTC-07:00)

Tiangong 1 - Pass Details

Date: 10 October 2017
Orbit: 293 x 320 km, 42.8° (Epoch: 18 October)

Event Time Altitude Azimuth Distance (km) Brightness Sun altitude
Rises 19:23:18 0° 297° (WNW) 2,035 6.0 -13.9°
Reaches altitude 10° 19:25:50 10° 323° (NW) 1,199 4.1 -14.4°
Maximum altitude 19:27:30 15° 2° (N) 959 3.1 -14.7°
Enters shadow 19:28:11 14° 20° (NNE) 1,000 3.0 -14.9°
